Weather History for CYMX - October, 2012

Change the Weather History Date:

Tuesday, October 9, 2012

  Actual Average Record
Temperature  
Mean Temperature 46 °F -  
Max Temperature 59 °F 56 °F 77 °F (2011)
Min Temperature 32 °F 38 °F 28 °F (2001)
Degree Days  
Heating Degree Days 20    
Moisture  
Dew Point 38 °F    
Average Humidity 76    
Maximum Humidity 100    
Minimum Humidity 44    
Precipitation  
Precipitation 0.00 in - - ()
Sea Level Pressure  
Sea Level Pressure 30.21 in    
Wind  
Wind Speed 4 mph ()    
Max Wind Speed 10 mph    
Max Gust Speed -    
Visibility 20.0 miles    
Events      
Averages and records for this station are not official NWS values.
T = Trace of Precipitation, MM = Missing Value Source: Averaged Metar Reports

Daily Weather History Graph

Daily Weather History Graph

Search for Another Location

Airport or City:

Trip Planner

Search our weather history database for the weather conditions in past years. The results will help you decide how hot, cold, wet, or windy it might be!

Date:

Astronomy

Oct. 09, 2012 Rise Set
Actual Time 7:05 AM EDT 6:20 PM EDT
Civil Twilight 6:35 AM EDT 6:50 PM EDT
Nautical Twilight 6:01 AM EDT 7:24 PM EDT
Astronomical Twilight 5:26 AM EDT 7:58 PM EDT
Moon 12:21 AM EDT (10/9) 3:02 PM EDT (10/9)
Length of Visible Light 12h 14m
Length of Day
11h 15m
Last Quarter, 37% of the Moon is Illuminated
Oct 9
Last Quarter
Oct 15
New
Oct 21
First Quarter
Oct 29
Full
Nov 6
Last Quarter

Hourly Weather History & Observations

Time (EDT) Temp. Windchill Dew Point Humidity Pressure Visibility Wind Dir Wind Speed Gust Speed Precip Events Conditions
12:00 AM 33.8 °F - 33.8 °F 100% 30.29 in 25.0 mi Calm Calm - N/A   Clear
1:00 AM 33.8 °F - 32.0 °F 93% 30.28 in 25.0 mi Calm Calm - N/A   Clear
2:00 AM 32.0 °F - 32.0 °F 100% - 25.0 mi Calm Calm - N/A   Partly Cloudy
3:00 AM 33.8 °F 29.6 °F 32.0 °F 93% 30.29 in 25.0 mi North 4.6 mph - N/A   Mostly Cloudy
4:00 AM 35.6 °F 32.8 °F 33.8 °F 93% 30.27 in 25.0 mi NE 3.5 mph - N/A   Mostly Cloudy
5:00 AM 37.4 °F 32.8 °F 33.8 °F 87% 30.28 in 25.0 mi NNE 5.8 mph - N/A   Mostly Cloudy
6:00 AM 35.6 °F 31.7 °F 32.0 °F 87% 30.29 in 25.0 mi NE 4.6 mph - N/A   Scattered Clouds
7:00 AM 35.6 °F 29.9 °F 32.0 °F 87% 30.29 in 45.0 mi NNE 6.9 mph - N/A   Scattered Clouds
8:00 AM 37.4 °F 33.8 °F 33.8 °F 87% 30.31 in 25.0 mi North 4.6 mph - N/A   Scattered Clouds
9:00 AM 41.0 °F 36.4 °F 37.4 °F 87% 30.30 in 20.0 mi NE 6.9 mph - N/A   Partly Cloudy
10:00 AM 44.6 °F 41.4 °F 39.2 °F 81% 30.30 in 20.0 mi NE 5.8 mph - N/A   Partly Cloudy
11:00 AM 50.0 °F - 42.8 °F 76% 30.27 in 40.0 mi East 4.6 mph - N/A   Partly Cloudy
12:00 PM 53.6 °F - 42.8 °F 67% 30.25 in 45.0 mi ESE 4.6 mph - N/A   Partly Cloudy
1:00 PM 55.4 °F - 39.2 °F 54% 30.23 in 45.0 mi SE 8.1 mph - N/A   Scattered Clouds
2:00 PM 57.2 °F - 35.6 °F 44% 30.18 in 50.0 mi SSE 8.1 mph - N/A   Mostly Cloudy
3:00 PM 57.2 °F - 37.4 °F 48% 30.17 in 45.0 mi South 9.2 mph - N/A   Mostly Cloudy
4:00 PM 59.0 °F - 37.4 °F 45% 30.15 in 45.0 mi SSE 10.4 mph - N/A   Mostly Cloudy
5:00 PM 57.2 °F - 41.0 °F 55% 30.14 in 45.0 mi SSE 5.8 mph - N/A   Mostly Cloudy
6:00 PM 55.4 °F - 41.0 °F 58% 30.12 in 45.0 mi ESE 6.9 mph - N/A   Mostly Cloudy
7:00 PM 53.6 °F - 42.8 °F 67% 30.11 in 25.0 mi SE 6.9 mph - N/A   Mostly Cloudy
8:00 PM 53.6 °F - 42.8 °F 67% 30.11 in 25.0 mi SSE 6.9 mph - N/A   Mostly Cloudy
9:00 PM 50.0 °F - 42.8 °F 76% 30.09 in 25.0 mi SSE 8.1 mph - N/A   Scattered Clouds
10:00 PM 48.2 °F - 42.8 °F 82% 30.07 in 25.0 mi SSE 5.8 mph - N/A   Scattered Clouds
11:00 PM 48.2 °F - 44.6 °F 87% 30.06 in 25.0 mi SE 6.9 mph - N/A   Scattered Clouds